,,Stat5,,Stat1,,Stat2,,Stat3,,Stat4,,Wind1,,Wind1,
time,status,PA1M_AVG,status,PR1M_SUM,status,RH1M_AVG,status,SR1M_AVG,status,TA1M_AVG,status,W1dAve1m,status,W1sAve1m,
2000-10-28, 00:00:00,VALID,918.945,VALID,0,VALID,95.528,VALID,0,VALID,20.2507,VALID,90,VALID,0.453125,
2000-10-28, 00:01:00,VALID,918.936,VALID,0,VALID,95.617,VALID,0,VALID,20.2736,VALID,90,VALID,0.201723,
2000-10-28, 00:02:00,VALID,918.924,VALID,0,VALID,95.6819,VALID,0,VALID,20.2793,VALID,83,VALID,0,
2000-10-28, 00:03:00,VALID,918.911,VALID,0,VALID,95.8179,VALID,0,VALID,20.2728,VALID,76,VALID,0,
2000-10-28, 00:04:00,VALID,918.908,VALID,0,VALID,95.9476,VALID,0.0169808,VALID,20.2696,VALID,76,VALID,0,
2000-10-28, 00:05:00,VALID,918.911,VALID,0,VALID,95.9642,VALID,0,VALID,20.2636,VALID,67,VALID,0.248397,
2000-10-28, 00:06:00,VALID,918.9,VALID,0,VALID,95.7836,VALID,0,VALID,20.2408,VALID,50,VALID,0.51317,
2000-10-28, 00:07:00,VALID,918.905,VALID,0,VALID,95.6603,VALID,0,VALID,20.2448,VALID,43,VALID,0.153906,
2000-10-28, 00:08:00,VALID,918.89,VALID,0,VALID,95.7836,VALID,0,VALID,20.2243,VALID,68,VALID,0.567925,
2000-10-28, 00:09:00,VALID,918.888,VALID,0,VALID,95.5674,VALID,0,VALID,20.238,VALID,93,VALID,0.99783,
2000-10-28, 00:10:00,VALID,918.88,VALID,0,VALID,95.1491,VALID,0,VALID,20.2211,VALID,75,VALID,0.784417,
2000-10-28, 00:11:00,VALID,918.878,VALID,0,VALID,94.9952,VALID,0,VALID,20.2286,VALID,70,VALID,1.47081,
2000-10-28, 00:12:00,VALID,918.868,VALID,0,VALID,94.7969,VALID,0,VALID,20.2505,VALID,73,VALID,1.15414,
2000-10-28, 00:13:00,VALID,918.871,VALID,0,VALID,94.6061,VALID,0,VALID,20.2664,VALID,60,VALID,1.06229,
2000-10-28, 00:14:00,VALID,918.872,VALID,0,VALID,94.6646,VALID,0,VALID,20.2669,VALID,48,VALID,0.347321,
2000-10-28, 00:15:00,VALID,918.86,VALID,0,VALID,94.7218,VALID,0,VALID,20.2636,VALID,71,VALID,0.548931,
2000-10-28, 00:16:00,VALID,918.839,VALID,0,VALID,94.6417,VALID,-0.0169808,VALID,20.2698,VALID,71,VALID,0.588049,
2000-10-28, 00:17:00,VALID,918.819,VALID,0,VALID,94.5044,VALID,0,VALID,20.2798,VALID,95,VALID,0.832508,
2000-10-28, 00:18:00,VALID,918.794,VALID,0,VALID,94.4141,VALID,-0.0339617,VALID,20.2607,VALID,65,VALID,1.25977,
2000-10-28, 00:19:00,VALID,918.773,VALID,0,VALID,94.47,VALID,-0.0339617,VALID,20.2577,VALID,73,VALID,1.31743,
2000-10-28, 00:20:00,VALID,918.758,VALID,0,VALID,94.5527,VALID,-0.0339617,VALID,20.2477,VALID,83,VALID,1.06065,
2000-10-28, 00:21:00,VALID,918.724,VALID,0,VALID,94.6684,VALID,0,VALID,20.2316,VALID,79,VALID,0.879297,
2000-10-28, 00:22:00,VALID,918.701,VALID,0,VALID,94.7651,VALID,-0.0169808,VALID,20.238,VALID,62,VALID,0.378806,
2000-10-28, 00:23:00,VALID,918.676,VALID,0,VALID,94.8375,VALID,0,VALID,20.2281,VALID,52,VALID,0.690402,
2000-10-28, 00:24:00,VALID,918.666,VALID,0,VALID,94.863,VALID,-0.0169808,VALID,20.248,VALID,50,VALID,0.469922,
2000-10-28, 00:25:00,VALID,918.637,VALID,0,VALID,94.8592,VALID,-0.0169808,VALID,20.2512,VALID,84,VALID,1.11393,
2000-10-28, 00:26:00,VALID,918.603,VALID,0,VALID,94.7918,VALID,-0.0339617,VALID,20.2539,VALID,93,VALID,0.927734,
2000-10-28, 00:27:00,VALID,918.582,VALID,0,VALID,94.7117,VALID,0,VALID,20.2442,VALID,106,VALID,1.35817,
2000-10-28, 00:28:00,VALID,918.54,VALID,0,VALID,94.7015,VALID,-0.0169808,VALID,20.2482,VALID,90,VALID,1.49297,
2000-10-28, 00:29:00,VALID,918.526,VALID,0,VALID,94.7358,VALID,-0.0169808,VALID,20.2415,VALID,87,VALID,1.24897,
2000-10-28, 00:30:00,VALID,918.509,VALID,0,VALID,94.8057,VALID,0,VALID,20.238,VALID,89,VALID,0.960726,
2000-10-28, 00:31:00,VALID,918.506,VALID,0,VALID,94.8312,VALID,-0.0169808,VALID,20.2251,VALID,76,VALID,0.948568,
2000-10-28, 00:32:00,VALID,918.495,VALID,0,VALID,94.9062,VALID,-0.0339617,VALID,20.2127,VALID,90,VALID,0.983319,
2000-10-28, 00:33:00,VALID,918.489,VALID,0,VALID,95.0003,VALID,-0.0169808,VALID,20.203,VALID,86,VALID,1.46443,
2000-10-28, 00:34:00,VALID,918.487,VALID,0,VALID,95.0168,VALID,0,VALID,20.1901,VALID,90,VALID,0.959335,
2000-10-28, 00:35:00,VALID,918.475,VALID,0,VALID,95.0486,VALID,0,VALID,20.1866,VALID,77,VALID,0.814904,
2000-10-28, 00:36:00,VALID,918.453,VALID,0,VALID,95.0702,VALID,-0.0169808,VALID,20.1834,VALID,69,VALID,0.585515,
2000-10-28, 00:37:00,VALID,918.438,VALID,0,VALID,95.1224,VALID,-0.0339617,VALID,20.1903,VALID,59,VALID,0.73273,
2000-10-28, 00:38:00,VALID,918.416,VALID,0,VALID,95.1224,VALID,-0.0169808,VALID,20.1936,VALID,76,VALID,0.825921,
2000-10-28, 00:39:00,VALID,918.404,VALID,0,VALID,95.0474,VALID,-0.0169808,VALID,20.1863,VALID,85,VALID,0.482973,
2000-10-28, 00:40:00,VALID,918.413,VALID,0,VALID,95.1313,VALID,0,VALID,20.1836,VALID,64,VALID,0.0372243,
2000-10-28, 00:41:00,VALID,918.418,VALID,0,VALID,95.2457,VALID,-0.0169808,VALID,20.1968,VALID,309,VALID,0.543586,
2000-10-28, 00:42:00,VALID,918.428,VALID,0,VALID,95.5115,VALID,-0.0509425,VALID,20.1704,VALID,316,VALID,0.489654,
2000-10-28, 00:43:00,VALID,918.42,VALID,0,VALID,95.7658,VALID,-0.0169808,VALID,20.1511,VALID,315,VALID,0,
2000-10-28, 00:44:00,VALID,918.416,VALID,0,VALID,95.9159,VALID,0,VALID,20.1411,VALID,307,VALID,0,
2000-10-28, 00:45:00,VALID,918.411,VALID,0,VALID,95.9655,VALID,-0.0169808,VALID,20.1386,VALID,327,VALID,0,
2000-10-28, 00:46:01,VALID,918.372,VALID,0,VALID,95.9388,VALID,-0.0169808,VALID,20.119,VALID,90,VALID,0.237331,
2000-10-28, 00:47:00,VALID,918.368,VALID,0,VALID,95.8447,VALID,-0.0169808,VALID,20.0835,VALID,119,VALID,0.0337054,
2000-10-28, 00:48:00,VALID,918.335,VALID,0,VALID,95.7455,VALID,-0.0169808,VALID,20.0867,VALID,98,VALID,0.819643,
2000-10-28, 00:49:00,VALID,918.317,VALID,0,VALID,95.6081,VALID,0,VALID,20.0611,VALID,74,VALID,1.14905,
2000-10-28, 00:50:01,VALID,918.284,VALID,0,VALID,95.7544,VALID,-0.0339617,VALID,20.0832,VALID,92,VALID,1.21394,
2000-10-28, 00:51:00,VALID,918.242,VALID,0,VALID,95.3589,VALID,-0.0169808,VALID,20.119,VALID,96,VALID,1.07031,
2000-10-28, 00:52:00,VALID,918.238,VALID,0,VALID,95.1821,VALID,-0.0339617,VALID,20.0996,VALID,85,VALID,0.858964,
2000-10-28, 00:53:00,VALID,918.214,VALID,0,VALID,95.308,VALID,0,VALID,20.077,VALID,89,VALID,0.655405,
2000-10-28, 00:54:00,VALID,918.21,VALID,0,VALID,95.4314,VALID,-0.0169808,VALID,20.0708,VALID,60,VALID,0.762821,
2000-10-28, 00:55:01,VALID,918.207,VALID,0,VALID,95.6781,VALID,0,VALID,20.0678,VALID,68,VALID,0.293269,
2000-10-28, 00:56:00,VALID,918.207,VALID,0,VALID,95.7734,VALID,0,VALID,20.0641,VALID,55,VALID,0.115986,
2000-10-28, 00:57:01,VALID,918.214,VALID,0,VALID,95.8256,VALID,0.0169808,VALID,20.0636,VALID,58,VALID,0.0078125,
2000-10-28, 00:58:00,VALID,918.217,VALID,0,VALID,95.8001,VALID,0,VALID,20.077,VALID,105,VALID,0.510156,
2000-10-28, 00:59:00,VALID,918.209,VALID,0,VALID,95.6615,VALID,0,VALID,20.0929,VALID,94,VALID,0.491102,
2000-10-28, 01:00:01,VALID,918.222,VALID,0,VALID,95.5763,VALID,-0.0169808,VALID,20.0966,VALID,77,VALID,0.812283,
2000-10-28, 01:01:00,VALID,918.204,VALID,0,VALID,95.5089,VALID,0,VALID,20.0894,VALID,90,VALID,1.13218,
2000-10-28, 01:02:01,VALID,918.198,VALID,0,VALID,95.4683,VALID,-0.0169808,VALID,20.08,VALID,96,VALID,0.835321,
2000-10-28, 01:03:00,VALID,918.185,VALID,0,VALID,95.4212,VALID,-0.0169808,VALID,20.0996,VALID,82,VALID,0.806166,
2000-10-28, 01:04:00,VALID,918.204,VALID,0,VALID,95.4148,VALID,-0.0169808,VALID,20.0765,VALID,73,VALID,0.485431,
2000-10-28, 01:05:00,VALID,918.204,VALID,0,VALID,95.5153,VALID,-0.0339617,VALID,20.0837,VALID,67,VALID,0.664063,
2000-10-28, 01:06:00,VALID,918.176,VALID,0,VALID,95.6145,VALID,-0.0169808,VALID,20.0738,VALID,61,VALID,0.698396,
2000-10-28, 01:07:01,VALID,918.154,VALID,0,VALID,95.6018,VALID,-0.0169808,VALID,20.0738,VALID,77,VALID,0.663851,
2000-10-28, 01:08:00,VALID,918.147,VALID,0,VALID,95.6081,VALID,-0.0169808,VALID,20.0638,VALID,57,VALID,0.948552,
2000-10-28, 01:09:00,VALID,918.117,VALID,0,VALID,95.6717,VALID,0,VALID,20.0668,VALID,58,VALID,0.741211,
2000-10-28, 01:10:01,VALID,918.098,VALID,0,VALID,95.6488,VALID,0,VALID,20.0899,VALID,73,VALID,0.802632,
2000-10-28, 01:11:00,VALID,918.057,VALID,0,VALID,95.4505,VALID,-0.0339617,VALID,20.084,VALID,90,VALID,1.52817,
2000-10-28, 01:12:00,VALID,918.021,VALID,0,VALID,95.3373,VALID,-0.0169808,VALID,20.0608,VALID,81,VALID,1.26309,
2000-10-28, 01:13:00,VALID,918.023,VALID,0,VALID,95.3449,VALID,-0.0679233,VALID,20.0385,VALID,79,VALID,1.28506,
2000-10-28, 01:14:01,VALID,918.005,VALID,0,VALID,95.5242,VALID,-0.0509425,VALID,20.029,VALID,85,VALID,1.21808,
2000-10-28, 01:15:00,VALID,917.996,VALID,0,VALID,95.5573,VALID,-0.0679233,VALID,20.0484,VALID,61,VALID,0.819922,
2000-10-28, 01:16:01,VALID,917.995,VALID,0,VALID,95.5178,VALID,-0.0679233,VALID,20.0509,VALID,67,VALID,0.333333,
2000-10-28, 01:17:01,VALID,918.003,VALID,0,VALID,95.322,VALID,-0.0169808,VALID,20.0715,VALID,66,VALID,0,
2000-10-28, 01:18:01,VALID,918.007,VALID,0,VALID,95.3093,VALID,-0.0339617,VALID,20.0425,VALID,80,VALID,0.759215,
2000-10-28, 01:19:00,VALID,917.996,VALID,0,VALID,95.3513,VALID,-0.0679233,VALID,20.0091,VALID,83,VALID,0.701275,
2000-10-28, 01:20:01,VALID,918.007,VALID,0,VALID,95.4225,VALID,-0.101885,VALID,19.9741,VALID,85,VALID,1.03207,
2000-10-28, 01:21:00,VALID,918.005,VALID,0,VALID,95.7251,VALID,-0.0509425,VALID,19.9679,VALID,85,VALID,1.30997,
2000-10-28, 01:22:00,VALID,917.991,VALID,0,VALID,95.6819,VALID,-0.0169808,VALID,19.9647,VALID,94,VALID,1.50846,
2000-10-28, 01:23:00,VALID,917.991,VALID,0,VALID,95.5725,VALID,-0.0679233,VALID,19.9579,VALID,81,VALID,1.79307,
2000-10-28, 01:24:00,VALID,917.973,VALID,0,VALID,95.3792,VALID,-0.0169808,VALID,19.9808,VALID,93,VALID,1.4743,
2000-10-28, 01:25:01,VALID,917.977,VALID,0,VALID,95.2737,VALID,-0.0509425,VALID,19.9903,VALID,80,VALID,1.10917,
2000-10-28, 01:26:00,VALID,917.968,VALID,0,VALID,95.13,VALID,-0.0849042,VALID,20.0067,VALID,90,VALID,0.679487,
2000-10-28, 01:27:00,VALID,917.963,VALID,0,VALID,95.1389,VALID,-0.0509425,VALID,19.9843,VALID,93,VALID,1.21495,
2000-10-28, 01:28:01,VALID,917.963,VALID,0,VALID,95.3055,VALID,-0.101885,VALID,19.9811,VALID,85,VALID,1.44963,
2000-10-28, 01:29:01,VALID,917.953,VALID,0,VALID,95.364,VALID,-0.0849042,VALID,19.9714,VALID,79,VALID,1.14924,
2000-10-28, 01:30:00,VALID,917.954,VALID,0,VALID,95.4988,VALID,-0.0679233,VALID,19.9744,VALID,85,VALID,1.34475,
2000-10-28, 01:31:00,VALID,917.955,VALID,0,VALID,95.4161,VALID,-0.0509425,VALID,19.9806,VALID,84,VALID,1.16613,
2000-10-28, 01:32:00,VALID,917.972,VALID,0,VALID,95.5191,VALID,0,VALID,19.9768,VALID,89,VALID,1.456,
2000-10-28, 01:33:00,VALID,917.974,VALID,0,VALID,95.4505,VALID,-0.0169808,VALID,19.993,VALID,55,VALID,0.621622,
2000-10-28, 01:34:00,VALID,917.986,VALID,0,VALID,95.5064,VALID,0,VALID,19.9999,VALID,47,VALID,0.422309,
2000-10-28, 01:35:00,VALID,917.992,VALID,0,VALID,95.5814,VALID,0,VALID,19.993,VALID,82,VALID,1.05078,
2000-10-28, 01:36:00,VALID,917.973,VALID,0,VALID,95.4886,VALID,-0.0169808,VALID,19.9927,VALID,79,VALID,1.61801,
2000-10-28, 01:37:01,VALID,917.943,VALID,0,VALID,95.3297,VALID,0,VALID,20.0382,VALID,88,VALID,1.94932,
2000-10-28, 01:38:00,VALID,917.935,VALID,0,VALID,95.0969,VALID,0,VALID,20.077,VALID,74,VALID,1.70871,
2000-10-28, 01:39:00,VALID,917.929,VALID,0,VALID,94.8553,VALID,0,VALID,20.1319,VALID,85,VALID,1.75893,
2000-10-28, 01:40:00,VALID,917.92,VALID,0,VALID,94.7333,VALID,0,VALID,20.1508,VALID,86,VALID,1.69819,
2000-10-28, 01:41:01,VALID,917.489,VALID,0,VALID,94.7473,VALID,-0.0169808,VALID,20.1443,VALID,88,VALID,1.14383,
2000-10-28, 01:42:00,VALID,917.923,VALID,0,VALID,94.7701,VALID,0.0169808,VALID,20.161,VALID,68,VALID,0.313867,
2000-10-28, 01:43:00,VALID,917.923,VALID,0,VALID,94.8579,VALID,0.0169808,VALID,20.1349,VALID,99,VALID,0.618421,
2000-10-28, 01:44:00,VALID,917.912,VALID,0,VALID,95.0283,VALID,0,VALID,20.0991,VALID,81,VALID,0.877745,
2000-10-28, 01:45:00,VALID,917.892,VALID,0,VALID,95.2355,VALID,0,VALID,20.077,VALID,80,VALID,1.23598,
2000-10-28, 01:46:01,VALID,917.884,VALID,0,VALID,95.2381,VALID,0,VALID,20.08,VALID,79,VALID,0.961338,
2000-10-28, 01:47:00,VALID,917.868,VALID,0,VALID,95.1211,VALID,0,VALID,20.1026,VALID,94,VALID,1.17909,
2000-10-28, 01:48:01,VALID,917.854,VALID,0,VALID,95.0219,VALID,0,VALID,20.0727,VALID,96,VALID,0.679241,
2000-10-28, 01:49:00,VALID,917.835,VALID,0,VALID,95.1135,VALID,0.0169808,VALID,20.0703,VALID,88,VALID,0.873828,
2000-10-28, 01:50:00,VALID,917.822,VALID,0,VALID,95.2559,VALID,0,VALID,20.0576,VALID,76,VALID,0.424262,
2000-10-28, 01:51:01,VALID,917.817,VALID,0,VALID,95.3157,VALID,-0.0339617,VALID,20.0576,VALID,79,VALID,0.842231,
2000-10-28, 01:52:00,VALID,917.816,VALID,0,VALID,95.3157,VALID,0.0169808,VALID,20.0514,VALID,74,VALID,1.10198,
2000-10-28, 01:53:01,VALID,917.812,VALID,0,VALID,95.205,VALID,0,VALID,20.0579,VALID,97,VALID,0.696135,
2000-10-28, 01:54:00,VALID,917.818,VALID,0,VALID,95.0893,VALID,-0.0169808,VALID,20.0188,VALID,83,VALID,0.606419,
2000-10-28, 01:55:00,VALID,917.794,VALID,0,VALID,95.2801,VALID,-0.0169808,VALID,20.0024,VALID,91,VALID,0.89527,
2000-10-28, 01:56:00,VALID,917.762,VALID,0,VALID,95.4009,VALID,0,VALID,19.9835,VALID,72,VALID,1.0346,
2000-10-28, 01:57:00,VALID,917.749,VALID,0,VALID,95.4377,VALID,0,VALID,19.9738,VALID,76,VALID,1.10917,
2000-10-28, 01:58:01,VALID,917.729,VALID,0,VALID,95.5674,VALID,-0.0339617,VALID,19.9674,VALID,76,VALID,1.06081,
2000-10-28, 01:59:00,VALID,917.718,VALID,0,VALID,95.6259,VALID,-0.0169808,VALID,19.983,VALID,74,VALID,0.677591,
2000-10-28, 02:00:00,VALID,917.7,VALID,0,VALID,95.631,VALID,0.0169808,VALID,19.9865,VALID,67,VALID,1.08867,
2000-10-28, 02:01:01,VALID,917.686,VALID,0,VALID,95.6476,VALID,-0.0169808,VALID,19.983,VALID,77,VALID,0.936678,
2000-10-28, 02:02:00,VALID,917.666,VALID,0,VALID,95.5865,VALID,-0.0509425,VALID,19.9773,VALID,80,VALID,1.20477,
2000-10-28, 02:03:00,VALID,917.637,VALID,0,VALID,95.6704,VALID,-0.0169808,VALID,19.9477,VALID,91,VALID,1.4377,
2000-10-28, 02:04:00,VALID,917.601,VALID,0,VALID,95.617,VALID,0,VALID,19.9313,VALID,85,VALID,1.28786,
2000-10-28, 02:05:01,VALID,917.591,VALID,0,VALID,95.6463,VALID,0,VALID,19.909,VALID,76,VALID,1.14866,
2000-10-28, 02:06:00,VALID,917.56,VALID,0,VALID,95.9349,VALID,0,VALID,19.8891,VALID,78,VALID,1.3666,
2000-10-28, 02:07:00,VALID,917.557,VALID,0,VALID,96.0608,VALID,0,VALID,19.9087,VALID,71,VALID,1.2194,
2000-10-28, 02:08:01,VALID,917.532,VALID,0,VALID,96.0646,VALID,0,VALID,19.9149,VALID,85,VALID,1.25326,
2000-10-28, 02:09:01,VALID,917.516,VALID,0,VALID,96.0303,VALID,0,VALID,19.9189,VALID,83,VALID,1.16406,
2000-10-28, 02:10:00,VALID,917.511,VALID,0,VALID,96.1028,VALID,0,VALID,19.9112,VALID,80,VALID,0.983141,
2000-10-28, 02:11:01,VALID,917.52,VALID,0,VALID,96.0863,VALID,0.0169808,VALID,19.9149,VALID,74,VALID,0.567434,
2000-10-28, 02:12:00,VALID,917.536,VALID,0,VALID,96.0964,VALID,0,VALID,19.9055,VALID,72,VALID,0.436444,
2000-10-28, 02:13:01,VALID,917.541,VALID,0,VALID,96.0952,VALID,0,VALID,19.9085,VALID,85,VALID,0.811198,
2000-10-28, 02:14:00,VALID,917.553,VALID,0,VALID,96.1295,VALID,0,VALID,19.899,VALID,77,VALID,0.521748,
2000-10-28, 02:15:00,VALID,917.549,VALID,0,VALID,96.1689,VALID,0,VALID,19.8732,VALID,73,VALID,0.154811,
2000-10-28, 02:16:01,VALID,917.552,VALID,0,VALID,96.2147,VALID,0,VALID,19.8538,VALID,78,VALID,0.0566907,
2000-10-28, 02:17:00,VALID,917.549,VALID,0,VALID,96.3457,VALID,0.0509425,VALID,19.8466,VALID,75,VALID,0.0130208,
2000-10-28, 02:18:00,VALID,917.537,VALID,0,VALID,96.4512,VALID,0,VALID,19.8309,VALID,72,VALID,0,
2000-10-28, 02:19:01,VALID,917.512,VALID,0,VALID,96.4677,VALID,0.0509425,VALID,19.8083,VALID,89,VALID,0.0187089,
2000-10-28, 02:20:00,VALID,917.486,VALID,0,VALID,96.4741,VALID,0,VALID,19.7825,VALID,107,VALID,0.543269,
2000-10-28, 02:21:00,VALID,917.455,VALID,0,VALID,96.5199,VALID,0,VALID,19.7696,VALID,96,VALID,0.533306,
2000-10-28, 02:22:01,VALID,917.441,VALID,0,VALID,96.5529,VALID,0,VALID,19.7599,VALID,102,VALID,0.287224,
2000-10-28, 02:23:00,VALID,917.43,VALID,0,VALID,96.6229,VALID,0,VALID,19.7668,VALID,103,VALID,0,
2000-10-28, 02:24:01,VALID,917.416,VALID,0,VALID,96.6699,VALID,0,VALID,19.7507,VALID,103,VALID,0,
2000-10-28, 02:25:01,VALID,917.414,VALID,0,VALID,96.6674,VALID,0.0169808,VALID,19.7407,VALID,103,VALID,0,
2000-10-28, 02:26:01,VALID,917.415,VALID,0,VALID,96.6572,VALID,0.0169808,VALID,19.7281,VALID,103,VALID,0,
2000-10-28, 02:27:00,VALID,917.415,VALID,0,VALID,96.6216,VALID,0,VALID,19.7116,VALID,104,VALID,0,
2000-10-28, 02:28:01,VALID,917.437,VALID,0,VALID,96.7615,VALID,0.0169808,VALID,19.6957,VALID,110,VALID,0,
2000-10-28, 02:29:01,VALID,917.452,VALID,0,VALID,96.8785,VALID,0.0169808,VALID,19.6928,VALID,242,VALID,0,
2000-10-28, 02:30:01,VALID,917.465,VALID,0,VALID,96.9408,VALID,0.0339617,VALID,19.6664,VALID,289,VALID,0,
2000-10-28, 02:31:01,VALID,917.468,VALID,0,VALID,96.7246,VALID,0.0169808,VALID,19.6341,VALID,282,VALID,0,
2000-10-28, 02:32:01,VALID,917.479,VALID,0,VALID,96.6407,VALID,0.0169808,VALID,19.6182,VALID,268,VALID,0,
2000-10-28, 02:33:01,VALID,917.467,VALID,0,VALID,96.7335,VALID,0,VALID,19.5951,VALID,268,VALID,0,
2000-10-28, 02:34:01,VALID,917.474,VALID,0,VALID,96.8187,VALID,0.0169808,VALID,19.5752,VALID,268,VALID,0,
2000-10-28, 02:35:01,VALID,917.452,VALID,0,VALID,96.9192,VALID,0.0339617,VALID,19.5794,VALID,267,VALID,0,
2000-10-28, 02:36:01,VALID,917.451,VALID,0,VALID,96.9433,VALID,0.0169808,VALID,19.5601,VALID,262,VALID,0,
2000-10-28, 02:37:01,VALID,917.444,VALID,0,VALID,96.9408,VALID,0.0169808,VALID,19.5437,VALID,262,VALID,0,
2000-10-28, 02:38:01,VALID,917.436,VALID,0,VALID,96.7958,VALID,0,VALID,19.5181,VALID,252,VALID,0,
2000-10-28, 02:39:01,VALID,917.436,VALID,0,VALID,96.764,VALID,0.0169808,VALID,19.4766,VALID,249,VALID,0.293527,
2000-10-28, 02:40:01,VALID,917.451,VALID,0,VALID,96.7882,VALID,0.0169808,VALID,19.437,VALID,248,VALID,0.707422,
2000-10-28, 02:41:01,VALID,917.443,VALID,0,VALID,96.8772,VALID,0.0169808,VALID,19.4082,VALID,251,VALID,0.842231,
2000-10-28, 02:42:01,VALID,917.443,VALID,0,VALID,97.1201,VALID,0.0169808,VALID,19.402,VALID,253,VALID,0.787326,
2000-10-28, 02:43:01,VALID,917.424,VALID,0,VALID,97.2027,VALID,0.0339617,VALID,19.3762,VALID,242,VALID,0.502956,
2000-10-28, 02:44:01,VALID,917.418,VALID,0,VALID,97.2892,VALID,0,VALID,19.3409,VALID,221,VALID,0.319696,
2000-10-28, 02:45:01,VALID,917.408,VALID,0,VALID,97.4164,VALID,0,VALID,19.3376,VALID,226,VALID,0.591639,
2000-10-28, 02:46:00,VALID,917.399,VALID,0,VALID,97.602,VALID,0.0169808,VALID,19.3307,VALID,232,VALID,0.61951,
2000-10-28, 02:47:00,VALID,917.402,VALID,0,VALID,97.7584,VALID,-0.0169808,VALID,19.3506,VALID,230,VALID,0.144643,
2000-10-28, 02:48:00,VALID,917.394,VALID,0,VALID,97.9199,VALID,-0.0169808,VALID,19.3603,VALID,230,VALID,0,
2000-10-28, 02:49:00,VALID,917.393,VALID,0,VALID,98.0585,VALID,0.0169808,VALID,19.3762,VALID,218,VALID,0,
2000-10-28, 02:50:00,VALID,917.389,VALID,0,VALID,98.1361,VALID,0,VALID,19.3824,VALID,212,VALID,0,
2000-10-28, 02:51:00,VALID,917.386,VALID,0,VALID,98.2149,VALID,0,VALID,19.4085,VALID,217,VALID,0,
2000-10-28, 02:52:00,VALID,917.375,VALID,0,VALID,98.2658,VALID,0.0509425,VALID,19.4184,VALID,212,VALID,0,
2000-10-28, 02:53:00,VALID,917.371,VALID,0,VALID,98.3408,VALID,0.0169808,VALID,19.4169,VALID,218,VALID,0,
2000-10-28, 02:54:00,VALID,917.356,VALID,0,VALID,98.4095,VALID,0,VALID,19.4631,VALID,232,VALID,0,
2000-10-28, 02:55:00,VALID,917.336,VALID,0,VALID,98.4667,VALID,0,VALID,19.4825,VALID,235,VALID,0,
2000-10-28, 02:56:00,VALID,917.335,VALID,0,VALID,98.4553,VALID,0,VALID,19.4858,VALID,234,VALID,0,
2000-10-28, 02:57:00,VALID,917.316,VALID,0,VALID,98.44,VALID,0,VALID,19.5022,VALID,177,VALID,0,
2000-10-28, 02:58:00,VALID,917.308,VALID,0,VALID,98.3853,VALID,0,VALID,19.4858,VALID,131,VALID,0,
2000-10-28, 02:59:00,VALID,917.289,VALID,0,VALID,98.3179,VALID,0.0509425,VALID,19.4661,VALID,131,VALID,0,
2000-10-28, 03:00:00,VALID,917.296,VALID,0,VALID,98.2887,VALID,0.0339617,VALID,19.4659,VALID,131,VALID,0,
2000-10-28, 03:01:00,VALID,917.281,VALID,0,VALID,98.2671,VALID,0,VALID,19.4664,VALID,131,VALID,0,
2000-10-28, 03:02:00,VALID,917.276,VALID,0,VALID,98.2225,VALID,0.0169808,VALID,19.4696,VALID,131,VALID,0,
2000-10-28, 03:03:00,VALID,917.263,VALID,0,VALID,98.2531,VALID,0.0339617,VALID,19.4691,VALID,129,VALID,0,
2000-10-28, 03:04:00,VALID,917.242,VALID,0,VALID,98.3383,VALID,0.0339617,VALID,19.5051,VALID,116,VALID,0,
2000-10-28, 03:05:00,VALID,917.237,VALID,0,VALID,98.2149,VALID,0.0169808,VALID,19.5116,VALID,115,VALID,0,
2000-10-28, 03:06:00,VALID,917.229,VALID,0,VALID,98.075,VALID,0.0169808,VALID,19.5046,VALID,115,VALID,0,
2000-10-28, 03:07:00,VALID,917.23,VALID,0,VALID,97.9352,VALID,0.0169808,VALID,19.4858,VALID,115,VALID,0,
2000-10-28, 03:08:00,VALID,917.203,VALID,0,VALID,97.9835,VALID,0.0339617,VALID,19.4885,VALID,120,VALID,0,
2000-10-28, 03:09:00,VALID,917.199,VALID,0,VALID,98.0979,VALID,0.0849042,VALID,19.5143,VALID,122,VALID,0,
2000-10-28, 03:10:00,VALID,917.189,VALID,0,VALID,98.1081,VALID,0.0169808,VALID,19.5563,VALID,136,VALID,0,
2000-10-28, 03:11:00,VALID,917.181,VALID,0,VALID,98.0661,VALID,0.0169808,VALID,19.576,VALID,141,VALID,0,
2000-10-28, 03:12:00,VALID,917.188,VALID,0,VALID,97.9034,VALID,0.0679233,VALID,19.5789,VALID,137,VALID,0,
2000-10-28, 03:13:00,VALID,917.187,VALID,0,VALID,97.8029,VALID,0.0339617,VALID,19.5924,VALID,137,VALID,0,
2000-10-28, 03:14:00,VALID,917.187,VALID,0,VALID,97.6732,VALID,0,VALID,19.5827,VALID,138,VALID,0,
2000-10-28, 03:15:00,VALID,917.196,VALID,0,VALID,97.5066,VALID,0.0679233,VALID,19.5794,VALID,136,VALID,0,
2000-10-28, 03:16:00,VALID,917.184,VALID,0,VALID,97.3808,VALID,0.0169808,VALID,19.5598,VALID,141,VALID,0,
2000-10-28, 03:17:00,VALID,917.168,VALID,0,VALID,97.2981,VALID,0.0169808,VALID,19.5702,VALID,133,VALID,0,
2000-10-28, 03:18:00,VALID,917.155,VALID,0,VALID,97.1226,VALID,0,VALID,19.5767,VALID,144,VALID,0,
2000-10-28, 03:19:00,VALID,917.123,VALID,0,VALID,96.9128,VALID,0.0169808,VALID,19.5894,VALID,157,VALID,0,
2000-10-28, 03:20:00,VALID,917.111,VALID,0,VALID,96.7132,VALID,0,VALID,19.6023,VALID,165,VALID,0,
2000-10-28, 03:21:00,VALID,917.106,VALID,0,VALID,96.558,VALID,-0.0169808,VALID,19.6185,VALID,168,VALID,0,
2000-10-28, 03:22:00,VALID,917.11,VALID,0,VALID,96.4588,VALID,-0.0169808,VALID,19.6212,VALID,184,VALID,0,
2000-10-28, 03:23:00,VALID,917.118,VALID,0,VALID,96.3736,VALID,0,VALID,19.6247,VALID,210,VALID,0,
2000-10-28, 03:24:00,VALID,917.11,VALID,0,VALID,96.3101,VALID,0.0169808,VALID,19.6152,VALID,217,VALID,0,
2000-10-28, 03:25:00,VALID,917.116,VALID,0,VALID,96.3698,VALID,0,VALID,19.5988,VALID,219,VALID,0,
2000-10-28, 03:26:00,VALID,917.123,VALID,0,VALID,96.497,VALID,0,VALID,19.5794,VALID,226,VALID,0,
2000-10-28, 03:27:00,VALID,917.129,VALID,0,VALID,96.5758,VALID,0,VALID,19.5633,VALID,218,VALID,0,
2000-10-28, 03:28:00,VALID,917.13,VALID,0,VALID,96.6877,VALID,0,VALID,19.5531,VALID,217,VALID,0,
2000-10-28, 03:29:00,VALID,917.143,VALID,0,VALID,96.764,VALID,0,VALID,19.5439,VALID,213,VALID,0,
2000-10-28, 03:30:00,VALID,917.142,VALID,0,VALID,96.8479,VALID,0,VALID,19.5243,VALID,213,VALID,0,
2000-10-28, 03:31:00,VALID,917.148,VALID,0,VALID,96.9522,VALID,0.0169808,VALID,19.5014,VALID,213,VALID,0,
2000-10-28, 03:32:00,VALID,917.143,VALID,0,VALID,96.9777,VALID,-0.0679233,VALID,19.4967,VALID,177,VALID,0,
2000-10-28, 03:33:00,VALID,917.151,VALID,0,VALID,96.9675,VALID,-0.0339617,VALID,19.4644,VALID,161,VALID,0,
2000-10-28, 03:34:00,VALID,917.143,VALID,0,VALID,97.1468,VALID,-0.0679233,VALID,19.4477,VALID,161,VALID,0,
2000-10-28, 03:35:00,VALID,917.136,VALID,0,VALID,97.3909,VALID,-0.0849042,VALID,19.4711,VALID,160,VALID,0,
2000-10-28, 03:36:00,VALID,917.12,VALID,0,VALID,97.4329,VALID,-0.101885,VALID,19.4808,VALID,159,VALID,0,
2000-10-28, 03:37:00,VALID,917.105,VALID,0,VALID,97.3515,VALID,-0.101885,VALID,19.4445,VALID,153,VALID,0,
2000-10-28, 03:38:00,VALID,917.086,VALID,0,VALID,97.4011,VALID,-0.101885,VALID,19.4485,VALID,150,VALID,0,
2000-10-28, 03:39:00,VALID,917.068,VALID,0,VALID,97.3998,VALID,-0.101885,VALID,19.442,VALID,131,VALID,0,
2000-10-28, 03:40:00,VALID,917.07,VALID,0,VALID,97.3986,VALID,-0.101885,VALID,19.4261,VALID,134,VALID,0,